Weather History for KEGI - October, 2013

Change the Weather History Date:

Monday, October 14, 2013

  Actual Average Record
Temperature  
Mean Temperature 72 °F -  
Max Temperature 85 °F - - ()
Min Temperature 59 °F - - ()
Cooling Degree Days 6    
Growing Degree Days 22 (Base 50)    
Moisture  
Dew Point 62 °F    
Average Humidity 74    
Maximum Humidity 94    
Minimum Humidity 49    
Precipitation  
Precipitation 0.00 in - - ()
Sea Level Pressure  
Sea Level Pressure 30.09 in    
Wind  
Wind Speed 5 mph (NE)    
Max Wind Speed 10 mph    
Max Gust Speed -    
Visibility 10 miles    
Events      
T = Trace of Precipitation, MM = Missing Value Source: NWS Daily Summary

Daily Weather History Graph

Daily Weather History Graph

Search for Another Location

Airport or City:

Trip Planner

Search our weather history database for the weather conditions in past years. The results will help you decide how hot, cold, wet, or windy it might be!

Date:

Astronomy

Oct. 14, 2013 Rise Set
Actual Time 6:47 AM CDT 6:15 PM CDT
Civil Twilight 6:23 AM CDT 6:39 PM CDT
Nautical Twilight 5:55 AM CDT 7:07 PM CDT
Astronomical Twilight 5:27 AM CDT 7:35 PM CDT
Moon 3:29 PM CDT (10/14) 2:21 AM CDT (10/14)
Length of Visible Light 12h 16m
Length of Day
11h 27m
Waxing Gibbous, 79% of the Moon is Illuminated
Oct 14
Waxing Gibbous
Oct 18
Full
Oct 26
Last Quarter
Nov 3
New
Nov 9
First Quarter

Hourly Weather History & Observations

Time (CDT) Temp. Heat Index Dew Point Humidity Pressure Visibility Wind Dir Wind Speed Gust Speed Precip Events Conditions
12:58 AM 62.2 °F - 59.4 °F 90% 30.10 in 10.0 mi North 3.5 mph - N/A   Clear
1:58 AM 61.9 °F - 59.7 °F 93% 30.09 in 10.0 mi North 2.3 mph - N/A   Clear
2:58 AM 61.5 °F - 58.3 °F 89% 30.10 in 10.0 mi North 3.5 mph - N/A   Clear
3:58 AM 61.2 °F - 58.3 °F 90% 30.08 in 10.0 mi NNE 3.5 mph - N/A   Clear
4:58 AM 60.4 °F - 57.6 °F 90% 30.10 in 10.0 mi NE 3.5 mph - N/A   Clear
5:58 AM 59.9 °F - 57.9 °F 93% 30.12 in 10.0 mi NNE 3.5 mph - N/A   Clear
6:58 AM 60.4 °F - 58.8 °F 94% 30.14 in 10.0 mi NE 3.5 mph - N/A   Clear
7:58 AM 63.3 °F - 61.5 °F 94% 30.14 in 10.0 mi NE 3.5 mph - N/A   Clear
8:58 AM 70.9 °F - 63.1 °F 76% 30.14 in 10.0 mi ENE 6.9 mph - N/A   Clear
9:58 AM 76.5 °F - 64.9 °F 67% 30.14 in 10.0 mi NE 8.1 mph - N/A   Clear
10:58 AM 79.5 °F - 64.2 °F 59% 30.13 in 10.0 mi ENE 6.9 mph - N/A   Clear
11:58 AM 81.9 °F 83.2 °F 63.7 °F 54% 30.11 in 10.0 mi NE 10.4 mph - N/A   Clear
12:58 PM 83.3 °F 84.6 °F 63.9 °F 52% 30.09 in 10.0 mi North 8.1 mph - N/A   Partly Cloudy
1:58 PM 84.7 °F 85.9 °F 63.9 °F 49% 30.05 in 10.0 mi NNE 9.2 mph - N/A   Partly Cloudy
2:58 PM 84.0 °F 85.6 °F 64.6 °F 52% 30.04 in 10.0 mi NE 6.9 mph - N/A   Partly Cloudy
3:58 PM 81.7 °F 83.3 °F 64.4 °F 56% 30.04 in 10.0 mi NE 8.1 mph - N/A   Partly Cloudy
4:58 PM 82.2 °F 83.8 °F 64.8 °F 55% 30.04 in 10.0 mi NNE 6.9 mph - N/A   Scattered Clouds
5:58 PM 78.3 °F - 64.4 °F 62% 30.05 in 10.0 mi NNE 4.6 mph - N/A   Clear
6:58 PM 73.2 °F - 63.9 °F 72% 30.07 in 10.0 mi NE 4.6 mph - N/A   Clear
7:58 PM 72.7 °F - 63.0 °F 71% 30.08 in 10.0 mi ENE 8.1 mph - N/A   Clear
8:58 PM 70.3 °F - 61.9 °F 74% 30.09 in 10.0 mi NE 4.6 mph - N/A   Clear
9:58 PM 67.6 °F - 61.0 °F 79% 30.10 in 10.0 mi NE 4.6 mph - N/A   Clear
10:58 PM 66.0 °F - 60.8 °F 83% 30.10 in 10.0 mi ENE 4.6 mph - N/A   Clear
11:58 PM 63.9 °F - 60.3 °F 88% 30.08 in 10.0 mi North 2.3 mph - N/A   Clear